Weather in Sukawati

Indonesia     8°35′48″S   115°16′58″E
temp.,
°C
wind,
m/s
gust,
m/s
humid.,
%
clouds,
%
prec.,
mm/h
press.,
hPa
HPBL,
m
6 march, sat
sat623:00+23n1284100 0.0 101125
02:00+22n1283100 0.0 100930
05:00+22nne1280100 0.0 100925
08:00+25nne1174100 0.0 101178
11:00+30ssw225899 0.1 10101161
14:00+27ssw128284 6.1 1009677
17:00+26s0191100 6.6 1008206
20:00+23nne119499 8.1 101024
7 march, sun
sun723:00+23n129381 0.1 101125
02:00+22n129165 0.1 100926
05:00+22n12900 0.0 100925
08:00+25n11810 0.0 1011101
11:00+30sw345832 0.1 10101159
14:00+30sw346429 3.2 10081140
17:00+26wsw139087 7.3 1007418
20:00+23n119594 14.9 101026
8 march, mon
mon823:00+22nne1294100 3.2 101132
02:00+22n1293100 3.5 100926
05:00+22n1291100 0.1 100927
08:00+25nnw128290 0.4 1011169
11:00+28sw237352 1.2 1011942
14:00+27ssw238664 8.4 1009736
17:00+25wsw1393100 6.8 1008475
20:00+22nne1296100 9.2 101028
9 march, tue
tue923:00+22n1293100 0.6 101130
02:00+22n2290100 0.6 100949
05:00+21n2289100 0.2 100943
08:00+24n1180100 0.3 101169
11:00+29sw225999 0.0 10111216
14:00+28s236799 0.0 1008779
17:00+26sse1178100 0.1 1008401
20:00+23ne119299 0.3 101030
10 march, wed
wed1023:00+22n129698 2.4 101124
02:00+22n119592 3.3 101025
05:00+22n1296100 2.3 100933
08:00+23n1195100 4.4 101144
11:00+25nnw018899 0.5 1011147
14:00+27se127980 1.4 1009565
17:00+23ene1195100 1.3 100847
20:00+23nne1195100 1.8 101132